Regional Weather Roundup
Issued by NWS

Home | Current Version | Previous Version | Graphics & Text | Print | Product List | Glossary Off
Versions: 1 2 3 4 5 6 7 8 9 10 11 12 13 14 15 16 17 18 19 20 21 22 23 24 25 26 27 28 29 30 31 32 33 34 35 36 37 38 39 40 41 42 43 44 45 46 47 48 49 50

760
ASUS43 KDMX 251108
RWRIA

WEATHER ROUNDUP FOR IOWA
NATIONAL WEATHER SERVICE DES MOINES IA
600 AM CDT SUN SEP 25 2016

NOTE: "FAIR" INDICATES FEW OR NO CLOUDS BELOW 12,000 FEET WITH NO
SIGNIFICANT WEATHER AND/OR OBSTRUCTIONS TO VISIBILITY.

* - THESE STATIONS ARE NOT NWS STATIONS...THUS NOT UNDER NWS
QUALITY CONTROL.  THEY ALSO DO NOT REPORT WEATHER SUCH
AS PRECIPITATION OR FOG.

IAZ001>003-012>014-020>022-031>034-043>046-251200-
   NORTHWEST IOWA

CITY           SKY/WX    TMP DP  RH WIND       PRES   REMARKS
CARROLL *      CLOUDY    66  63  88 W7        30.00R FOG
CHEROKEE *     PTCLDY    57  52  85 W3        30.02R
DENISON *      CLOUDY    59  54  82 VRB7      30.01R
LE MARS *      MOCLDY    55  48  76 CALM      30.03R
ORANGE CITY *  PTCLDY    54  48  82 W9        30.01R
SHELDON *      CLOUDY    54  52  94 W7        29.99R
SIOUX CITY     MOCLDY    56  49  77 W8        30.04R
SPENCER        CLOUDY    58  52  80 W12       29.98R
STORM LAKE *   CLOUDY    57  52  82 NW12G17   30.01R
$$

IAZ055>058-069>071-079>083-090>094-251200-
   SOUTHWEST IOWA

CITY           SKY/WX    TMP DP  RH WIND       PRES   REMARKS
ATLANTIC *     LGT RAIN  66  64  94 W10       30.01R
AUDUBON *      HVY RAIN  64  63  94 CALM      30.02R
CLARINDA *       N/A     66  64  94 MISG      30.04R
COUNCIL BLFS * CLOUDY    59  52  77 NW10G17   30.06R
CRESTON *      CLOUDY    68  66  94 SW9       30.01S
HARLAN  *      DRIZZLE   61  59  94 NW15G23   30.06R
LAMONI         CLOUDY    68  67  96 SW15G22   30.02R
RED OAK *      CLOUDY    66  66 100 W12G17    30.03R FOG
SHENANDOAH *   CLOUDY    64  64 100 W8        30.05R
$$

IAZ047>049-059>061-072>074-084-251200-
   CENTRAL IOWA

CITY           SKY/WX    TMP DP  RH WIND       PRES   REMARKS
AMES           PTCLDY    68  68 100 SW7       29.97S
ANKENY *         N/A    N/A N/A N/A MISG        N/A
BOONE *        MOCLDY    68  68 100 SW7       29.97R
CHARITON *       N/A     68  66  94 S7        30.00R
DES MOINES     CLOUDY    69  67  93 S5        29.97R
GRINNELL*      CLOUDY    67  65  94 SE3       29.98S
KNOXVILLE *    CLOUDY    68  66  94 S5        29.97R
MARSHALLTOWN   CLOUDY    68  68 100 SW5       29.96R
NEWTON *       CLOUDY    68  66  94 SW5       29.97R
PELLA *        CLOUDY    67  66  96 S5        29.98S
PERRY *        MOCLDY    68  68 100 S7        29.98R
$$

IAZ004>006-015-016-023>025-035-036-251200-
   NORTH CENTRAL IOWA

CITY           SKY/WX    TMP DP  RH WIND       PRES   REMARKS
ALGONA *       LGT RAIN  63  61  94 W7        29.95R
CLARION *      CLOUDY    68  68 100 S14G20    29.95S
ESTHERVILLE    CLOUDY    63  62  97 W16       29.95R
FORT DODGE *   CLOUDY    68  64  88 S13       29.96S
MASON CITY     CLOUDY    68  67  96 S10       29.96R FOG
FOREST CITY *  CLOUDY    66  66 100 S7        29.95R
WEBSTER CITY * CLOUDY    68  68 100 S8        29.94S
IOWA FALLS *   CLOUDY    68  67  96 S7        29.97S
$$

IAZ007>011-017>019-026>030-037>042-050>054-066-251200-
   NORTHEAST IOWA

CITY           SKY/WX    TMP DP  RH WIND       PRES   REMARKS
CEDAR RAPIDS   MOCLDY    67  67 100 SE3       29.98F FOG
CHARLES CITY * CLOUDY    68  68 100 SE9       29.94F FOG
CLINTON *      PTCLDY    67  66  97 SE10      30.02F
DECORAH *      CLOUDY    64  64 100 SE9G16    29.94F FOG
DUBUQUE        PTCLDY    65  64  97 SE12      30.01F FOG
MONTICELLO *   MOCLDY    66  64  94 SE6       29.99F FOG
OELWEIN *      CLOUDY    66  66 100 SE8G14    29.97F FOG
WATERLOO       CLOUDY    68  67  96 SE8       29.95S FOG
$$

IAZ064-065-067-068-078-251200-
   EAST CENTRAL IOWA

CITY           SKY/WX    TMP DP  RH WIND       PRES   REMARKS
DAVENPORT      PTCLDY    67  65  93 SE8       30.02S
IOWA CITY      CLOUDY    69  66  90 SE6       29.99F
MT. PLEASANT * MOCLDY    72  68  88 S3        30.00R
MUSCATINE *    CLOUDY    66  64  94 CALM      29.99F
QUAD CITIES    CLEAR     69  65  86 E5        30.01S
$$

IAZ062-063-075>077-085>089-095>099-251200-
   SOUTHEAST IOWA

CITY           SKY/WX    TMP DP  RH WIND       PRES   REMARKS
BURLINGTON     CLOUDY    71  68  90 S8        30.00S
FAIRFIELD *    MOCLDY    70  64  83 S8        29.97F
FORT MADISON * CLOUDY    72  66  83 S8        30.01S
KEOKUK *       CLOUDY    70  66  88 S5        30.00S
OSKALOOSA *      N/A     67  66  97 SE6       29.97S
CENTERVILLE *    N/A     66  66 100 CALM      30.01R FOG
OTTUMWA        CLEAR     67  65  93 E3        29.97F
WASHINGTON *     N/A    N/A N/A N/A MISG        N/A
$$

ABBREVIATIONS USED IN REMARKS
   TC - TEMPERATURES IN CELSIUS
  WCI - WIND CHILL INDEX
   HX - HEAT INDEX
  VSB - VISIBILITY
$$





USA.gov is the U.S. government's official web portal to all federal, state and local government web resources and services.